Flag for Germany Weather past 2 weeks in Sundern (Sauerland), North Rhine-Westphalia, Germany

Now
45 °F

Clear.


Feels Like: 40 °F
Forecast: 43 / 65 °F
Wind: 8 mph from South

Location: Dortmund / Wickede

Current Time: May 30, 2015 at 11:45:06 PM

Latest Report: May 30, 2015 at 10:50 PM


Visibility: 10 mi

Pressure: 30.01 "Hg

Humidity: 81%

Dew point: 39 °F

Location of Sundern (Sauerland)Location

Historic Weather in Sundern (Sauerland) — Graph

°F

Sundern (Sauerland) temperature yesterday

Maximum temperature yesterday: 61 °F (at 2:50 PM)
Minimum temperature yesterday: 48 °F (at 5:20 AM)
Average temperature yesterday: 56 °F

Past Weeks' High & Low Weather Summary

 TemperatureHumidityPressure
High68 °F (May 22, 3:50 PM)94% (May 25, 11:50 AM)30.33 "Hg (May 25, 11:50 AM)
Low39 °F (May 16, 5:20 AM)32% (May 21, 3:50 PM)29.62 "Hg (May 18, 7:20 PM)
Average55 °F63%30.03 "Hg
* Reported May 15 10:20 PM — May 30 10:20 PM, Sundern (Sauerland), Weather by CustomWeather, © 2015

Note: Actual official high and low records may vary slightly from our data, if they occured in-between our weather recording intervals... More about our weather records

Advertising

Sundern (Sauerland) weather history for previous 24 hours

 ConditionsComfort  
Time TempWeatherWind HumidityBarometerVisibility
10:20 PM
Sat, May 30
45 °FSunny.8 mph81%30.01 "Hg10 mi
9:50 PM46 °FSunny.9 mph76%30.01 "Hg10 mi
9:20 PM48 °FSunny.8 mph76%30.01 "Hg10 mi
8:50 PM50 °FSunny.10 mph67%30.01 "Hg10 mi
8:20 PM52 °FSunny.12 mph62%30.01 "Hg10 mi
7:50 PM54 °FSunny.12 mph58%30.01 "Hg10 mi
7:20 PM55 °FSunny.12 mph59%30.01 "Hg10 mi
6:50 PM54 °FSunny.12 mph63%30.01 "Hg10 mi
5:50 PM54 °FPassing clouds.9 mph67%29.98 "HgN/A
5:20 PM52 °FScattered showers. Scattered clouds.12 mph72%29.98 "HgN/A
4:50 PM52 °FPassing clouds.12 mph67%29.98 "HgN/A
4:20 PM52 °FPassing clouds.13 mph67%29.98 "HgN/A
3:50 PM48 °FSunny.13 mph76%29.98 "Hg10 mi
3:20 PM48 °FScattered showers. Clear.12 mph76%29.98 "HgN/A
2:50 PM48 °FSunny.12 mph76%29.98 "Hg10 mi
2:20 PM46 °FSprinkles. Broken clouds.16 mph82%29.98 "HgN/A
1:50 PM48 °FScattered showers. Partly sunny.10 mph76%29.95 "HgN/A
1:20 PM46 °FSprinkles. Partly sunny.24 mph76%29.95 "HgN/A
12:50 PM50 °FScattered showers. Partly sunny.10 mph76%29.92 "HgN/A
12:20 PM46 °FScattered showers. Partly sunny.9 mph82%29.92 "HgN/A
11:50 AM52 °FSprinkles. Partly sunny.16 mph62%29.92 "HgN/A
11:20 AM54 °FSprinkles. Scattered clouds.15 mph58%29.89 "HgN/A
10:50 AM52 °FScattered clouds.15 mph62%29.89 "HgN/A
10:20 AM54 °FScattered clouds.14 mph67%29.89 "HgN/A
9:50 AM50 °FScattered clouds.15 mph71%29.89 "HgN/A
9:20 AM52 °FScattered clouds.15 mph72%29.86 "HgN/A
8:50 AM52 °FScattered clouds.13 mph77%29.86 "HgN/A
8:20 AM50 °FScattered clouds.13 mph76%29.86 "HgN/A
7:50 AM50 °FScattered clouds.12 mph82%29.86 "HgN/A
7:20 AM48 °FScattered clouds.12 mph87%29.83 "HgN/A
6:50 AM48 °FPartly sunny.9 mph87%29.83 "HgN/A
6:20 AM48 °FPartly sunny.9 mph87%29.83 "HgN/A
5:50 AM48 °FPartly cloudy.8 mph87%29.83 "HgN/A
5:20 AM48 °FLight rain. Partly cloudy.7 mph87%29.80 "HgN/A
Weather by CustomWeather, © 2015

See weather overviewHow to use our weather pages